Regional Weather Roundup
Issued by NWS Sterling, VA

Home | Current Version | Previous Version | Text Only | Print | Product List | Glossary On
Versions: 1 2 3 4 5 6 7 8 9 10 11 12 13 14 15 16 17 18 19 20 21 22 23 24 25 26 27 28 29 30 31 32 33 34 35 36 37 38 39 40 41 42 43 44 45 46 47 48 49 50
459
ASUS41 KLWX 240610
RWRLWX

REGIONAL WEATHER ROUNDUP
NATIONAL WEATHER SERVICE BALTIMORE MD/WASHINGTON DC
200 AM EDT TUE MAY 24 2016

Note: "FAIR" indicates few or no clouds below 12,000 feet
with no significant weather and/or obstructions to visibility.
 TC=TEMPERATURE CELSIUS

 * =Non NWS site. Station does not report precipitation (e.g. rain,
    snow, etc.), thunder, or fog.

DCZ001-MDZ009-015-VAZ040>042-051-053>054-240700-
WASHINGTON METRO

CITY           SKY/WX    TMP DP  RH WIND       PRES   REMARKS
WASHINGTON NAT LGT RAIN  62  56  80 CALM      29.94F
DULLES         MOCLDY    57  55  93 N7        29.98R
ANDREWS AFB    CLOUDY    59  55  88 N6        29.93S
FT BELVOIR     LGT RAIN  59  57  94 VRB1      29.93F
QUANTICO       LGT RAIN  59  55  87 NW14      29.94F
LEESBURG*      MOCLDY    59  59 100 CALM      29.99R
MANASSAS*      CLOUDY    57  57 100 SW3       29.96S

$$

MDZ006>007-011-014-240700-
BALTIMORE METRO

CITY           SKY/WX    TMP DP  RH WIND       PRES   REMARKS
BWI AIRPORT    MOCLDY    59  55  87 W9        29.92F
MD SCIENCE CTR   N/A     60  55  83 MISG      29.93F
MARTIN STATE   MOCLDY    61  59  94 W5        29.93S
ANNAPOLIS      LGT RAIN  60  55  83 VRB3      29.92F

$$

MDZ012-015-019>023-240700-
MARYLAND EASTERN SHORE

CITY           SKY/WX    TMP DP  RH WIND       PRES   REMARKS
OCEAN CITY     CLOUDY    56  51  84 W3        29.93S
SALISBURY      MOCLDY    56  54  93 W3        29.93F
EASTON*        FOG       57  57 100 CALM      29.97F VSB 1

$$

MDZ017>025-240700-
SOUTHERN MARYLAND

CITY           SKY/WX    TMP DP  RH WIND       PRES   REMARKS
PATUXENT RIVER PTCLDY    56  53  90 SW6       29.94F
ST INIGOES     CLOUDY    59  57  93 W3        29.94F
LEONARDTOWN*   NOT AVBL

$$

MDZ003>005-240700-
NORTH CENTRAL MARYLAND

CITY           SKY/WX    TMP DP  RH WIND       PRES   REMARKS
FREDERICK*     CLOUDY    59  57  94 W6        29.98R
HAGERSTOWN APT CLEAR     55  52  89 E6        29.96F
WESTMINSTER*   PTCLDY    59  50  72 W8        29.94F

$$

MDZ501>502-240700-
WESTERN MARYLAND

CITY           SKY/WX    TMP DP  RH WIND       PRES   REMARKS
OAKLAND*       NOT AVBL
CUMBERLAND*    PTCLDY    57  54  88 S3        30.04F

$$

VAZ025>031-240700-
SHENANDOAH VALLEY

CITY           SKY/WX    TMP DP  RH WIND       PRES   REMARKS
WINCHESTER*    FAIR      55  54  94 SW6       29.97S
FRONT ROYAL*   FAIR      55  54  94 S5        29.97S
LURAY*         CLOUDY    59  54  82 W5        30.00S
NEW MARKET*    CLOUDY    57  54  92 CALM      30.00F
STAUNTON*      FAIR      57  57 100 SE5       30.04F
WAYNESBORO*    CLOUDY    54  53  95 CALM      30.03S

$$

WVZ021-048>050-054>055-240700-
EASTERN WEST VIRGINIA PANHANDLE

CITY           SKY/WX    TMP DP  RH WIND       PRES   REMARKS
MARTINSBURG    FAIR      53  52  96 SE3       29.96S
PETERSBURG*    FAIR      55  55  99 CALM      30.04F

$$

VAZ036>039-050-240700-
CENTRAL FOOTHILLS

CITY           SKY/WX    TMP DP  RH WIND       PRES   REMARKS
CHARLOTTESVILL MOCLDY    58  55  90 CALM      29.97F
CULPEPER*      FAIR      54  54 100 CALM      29.97S FOG
ORANGE*        FAIR      55  55 100 CALM      29.98S
GORDONSVILLE*  FAIR      56  55  99 SW3       29.96F
WARRENTON*     MOCLDY    56  52  86 E5        29.96R

$$

VAZ055>057-240700-
NORTH AND CENTRAL PIEDMONT

CITY           SKY/WX    TMP DP  RH WIND       PRES   REMARKS
FREDERICKSBRG* CLOUDY    57  57 100 N5        29.96S
STAFFORD*      CLOUDY    56  54  92 CALM      30.01R

$$

NCZ024-NYZ072-PAZ021-071-VAZ022-071-240700-
OTHER REGIONAL OBSERVATIONS

CITY           SKY/WX    TMP DP  RH WIND       PRES   REMARKS
NEW YORK CITY  CLOUDY    63  48  58 CALM      29.93S
PHILADELPHIA   CLOUDY    58  52  80 SE6       29.92F
PITTSBURGH     PTCLDY    55  49  80 W6        30.02S
ROANOKE        FAIR      57  52  83 NW3       30.06F
RICHMOND       MOCLDY    57  54  89 CALM      29.97S
RALEIGH        PTCLDY    52  51  97 CALM      30.04S

$$

ANZ530>537-240700-
MARINE OBSERVATIONS

STATION/POSITION TIME  TEMP    WIND        PRES
                       AIR SEA DIR/SP/G
                 (UTC) (F)     (DEG/KT/KT) (MB)
THOMAS PT LIGHT  0600   60 61  300/  2/  2 1014.8F
BALT KEY BRIDGE  0500   62     300/  8/ 11 1013.6R
COVE POINT       0500   59     340/  6/  7 1014.6F
LEWISETTA        0500   59 63  290/  5/  6 1014.0R
SOLOMONS ISLAND  0500   60 62  290/  2/  3   N/A
PINEY POINT      0500          340/  6/  7   N/A

$$





USA.gov is the U.S. government's official web portal to all federal, state and local government web resources and services.